Weather History for Wright-Patt AFB, OH

Change the Weather History Date:

Friday, January 4, 2013

  Actual Average Record
Temperature  
Mean Temperature 28 °F -  
Max Temperature 32 °F 36 °F 64 °F (1997)
Min Temperature 21 °F 22 °F 0 °F (1999)
Degree Days  
Heating Degree Days 38    
Moisture  
Dew Point 16 °F    
Average Humidity 62    
Maximum Humidity 71    
Minimum Humidity 47    
Precipitation  
Precipitation 0.00 in - - ()
Snow  
Snow 0.00 in - - ()
Snow Depth 2.00 in    
Sea Level Pressure  
Sea Level Pressure 30.31 in    
Wind  
Wind Speed 13 mph (SW)    
Max Wind Speed 24 mph    
Max Gust Speed 30 mph    
Visibility 10 miles    
Events      
Averages and records for this station are not official NWS values.
T = Trace of Precipitation, MM = Missing Value Source: NWS Daily Summary

Daily Weather History Graph

Daily Weather History Graph

Search for Another Location

Airport:

Trip Planner

Search our weather history database for the weather conditions in past years. The results will help you decide how hot, cold, wet, or windy it might be!

Date:

Astronomy

Jan. 04, 2013 Rise Set
Actual Time 7:57 AM EST 5:25 PM EST
Civil Twilight 7:27 AM EST 5:55 PM EST
Nautical Twilight 6:53 AM EST 6:29 PM EST
Astronomical Twilight 6:21 AM EST 7:01 PM EST
Moon No Moon Rise 11:40 AM EST (1/4)
Length of Visible Light 10h 27m
Length of Day
9h 27m
Waning Gibbous, 55% of the Moon is Illuminated
Jan 4
Waning Gibbous
Jan 4
Last Quarter
Jan 11
New
Jan 18
First Quarter
Jan 26
Full

Hourly Weather History & Observations

Time (EST) Temp. Windchill Dew Point Humidity Pressure Visibility Wind Dir Wind Speed Gust Speed Precip Events Conditions
12:55 AM 29.8 °F 22.2 °F 18.9 °F 64% 30.29 in 10.0 mi WSW 8.1 mph - N/A   Overcast
1:55 AM 29.7 °F 20.1 °F 19.8 °F 67% 30.29 in 10.0 mi SW 11.5 mph - N/A   Overcast
2:55 AM 29.7 °F 20.1 °F 20.3 °F 68% 30.30 in 10.0 mi SW 11.5 mph - N/A   Overcast
3:55 AM 29.8 °F 18.9 °F 19.0 °F 64% 30.30 in 10.0 mi WSW 15.0 mph - N/A   Overcast
4:55 AM 28.9 °F 14.8 °F 17.2 °F 62% 30.30 in 10.0 mi WSW 24.2 mph 29.9 mph N/A   Overcast
5:12 AM 26.6 °F 13.1 °F 15.8 °F 64% 30.30 in 10.0 mi SW 19.6 mph 24.2 mph N/A   Mostly Cloudy
5:34 AM 26.6 °F 14.7 °F 15.8 °F 64% 30.30 in 10.0 mi SW 15.0 mph - N/A   Scattered Clouds
5:55 AM 25.0 °F 14.2 °F 15.1 °F 66% 30.30 in 10.0 mi SW 11.5 mph - N/A   Partly Cloudy
6:55 AM 23.7 °F 12.6 °F 14.5 °F 68% 30.31 in 10.0 mi SW 11.5 mph - N/A   Partly Cloudy
7:55 AM 23.0 °F 12.4 °F 14.4 °F 70% 30.32 in 10.0 mi WSW 10.4 mph - N/A   Clear
8:55 AM 23.9 °F 12.9 °F 15.1 °F 69% 30.32 in 10.0 mi WSW 11.5 mph - N/A   Clear
9:55 AM 25.7 °F 13.5 °F 16.3 °F 68% 30.34 in 10.0 mi WSW 15.0 mph 23.0 mph N/A   Clear
10:55 AM 27.3 °F 14.0 °F 18.0 °F 68% 30.35 in 10.0 mi WSW 19.6 mph 26.5 mph N/A   Partly Cloudy
11:55 AM 29.3 °F 17.0 °F 17.6 °F 62% 30.33 in 10.0 mi SW 18.4 mph 24.2 mph N/A   Partly Cloudy
12:55 PM 30.9 °F 19.4 °F 17.1 °F 57% 30.31 in 10.0 mi WSW 17.3 mph 24.2 mph N/A   Clear
1:55 PM 31.5 °F 20.9 °F 13.5 °F 47% 30.29 in 10.0 mi WSW 15.0 mph 26.5 mph N/A   Scattered Clouds
2:00 PM 32.0 °F 22.5 °F 14.0 °F 48% 30.25 in 10.0 mi SW 12.7 mph - N/A   Scattered Clouds
2:55 PM 31.3 °F 18.9 °F 14.7 °F 50% 30.30 in 10.0 mi SW 20.7 mph 28.8 mph N/A   Partly Cloudy
3:55 PM 30.7 °F 18.5 °F 14.7 °F 52% 30.31 in 10.0 mi WSW 19.6 mph - N/A   Clear
4:55 PM 29.7 °F 19.6 °F 14.4 °F 53% 30.32 in 10.0 mi WSW 12.7 mph - N/A   Clear
5:55 PM 27.7 °F 17.1 °F 14.4 °F 57% 30.32 in 10.0 mi SW 12.7 mph - N/A   Clear
6:55 PM 27.3 °F 15.6 °F 14.2 °F 58% 30.32 in 10.0 mi SW 15.0 mph - N/A   Clear
7:55 PM 27.0 °F 15.2 °F 14.2 °F 59% 30.33 in 10.0 mi SW 15.0 mph - N/A   Clear
8:55 PM 25.3 °F 14.7 °F 14.2 °F 63% 30.33 in 10.0 mi SSW 11.5 mph - N/A   Clear
9:55 PM 25.5 °F 15.5 °F 14.7 °F 64% 30.34 in 10.0 mi SW 10.4 mph - N/A   Clear
10:55 PM 24.4 °F 15.6 °F 14.2 °F 65% 30.34 in 10.0 mi SW 8.1 mph - N/A   Clear
11:55 PM 21.9 °F 11.7 °F 13.8 °F 71% 30.36 in 10.0 mi SSW 9.2 mph - N/A   Clear